This demonstration page uses our WeatherBlox Daily Observations layout. Learn more.

Left ArrowRight Arrow

31.31129, -92.44514

Hourly Observations for August 26, 2016

Temp ( °F °C ) Dew Point ( °F °C ) Humidity (%) Winds ( mph kmh ) Pressure ( in mb ) Visibility ( mi km ) Precip ( " mm )
12:04 am 00:04 Mostly Cloudy 74 23.3 73 22.8 97 97 Calm 30.09 1019 9 14 0.00 0.00
12:12 am 00:12 Partly Cloudy 74 23.3 73 22.8 97 97 NNE 3 6 30.09 1019 9 14 0.00 0.00
12:53 am 00:53 Clear 73 22.8 73 22.8 100 100 Calm 30.06 1018 10 16 0.00 0.00
1:18 am 01:18 Mostly Clear 73 22.8 73 22.8 100 100 Calm 30.06 1018 10 16 0.00 0.00
1:53 am 01:53 Mostly Clear 73 22.8 72 22.2 96 96 Calm 30.04 1017 10 16 0.00 0.00
2:53 am 02:53 Clear 73 22.8 73 22.8 100 100 ESE 5 7 30.01 1016 9 14 0.00 0.00
3:07 am 03:07 Partly Cloudy 73 22.8 73 22.8 100 100 SE 7 11 30.00 1016 9 14 0.00 0.00
3:22 am 03:22 Mostly Cloudy 73 22.8 73 22.8 100 100 SE 8 13 30.00 1016 9 14 0.00 0.00
3:53 am 03:53 Cloudy 73 22.8 73 22.8 100 100 ESE 6 9 30.02 1017 9 14 0.00 0.00
4:39 am 04:39 Mostly Cloudy 73 22.8 73 22.8 100 100 SE 5 7 30.00 1016 10 16 0.00 0.00
4:53 am 04:53 Cloudy 73 22.8 73 22.8 100 100 SSE 3 6 30.01 1016 9 14 0.00 0.00
5:27 am 05:27 Cloudy 73 22.8 73 22.8 100 100 SSE 5 7 30.00 1016 9 14 0.00 0.00
5:53 am 05:53 Cloudy 73 22.8 73 22.8 100 100 SE 5 7 30.03 1017 9 14 0.00 0.00
6:53 am 06:53 Cloudy 73 22.8 73 22.8 100 100 Calm 30.04 1017 8 13 0.00 0.00
7:53 am 07:53 Cloudy with Mist and Fog 74 23.3 73 22.8 97 97 N 5 7 30.06 1018 6 10 0.00 0.00
8:53 am 08:53 Cloudy with Mist and Fog 74 23.3 73 22.8 97 97 N 5 7 30.08 1019 5 8 0.00 0.00
9:53 am 09:53 Cloudy 75 23.9 74 23.3 96 96 NE 5 7 30.08 1019 7 11 0.00 0.00
10:16 am 10:16 Cloudy 76 24.4 74 23.3 94 94 NNE 7 11 30.09 1019 8 13 0.00 0.00
10:53 am 10:53 Cloudy 79 26.1 74 23.3 85 85 N 6 9 30.09 1019 8 13 0.00 0.00
11:53 am 11:53 Cloudy 80 26.7 75 23.9 85 85 E 7 11 30.08 1019 9 14 0.00 0.00
12:00 pm 12:00 Cloudy 80 26.7 75 23.9 85 85 Calm 30.06 1018 9 14 0.00 0.00
12:35 pm 12:35 Mostly Cloudy 83 28.3 76 24.4 79 79 E 7 11 30.06 1018 10 16 0.00 0.00
12:53 pm 12:53 Partly Cloudy 84 28.9 76 24.4 77 77 VRB 5 7 30.04 1017 10 16 0.00 0.00
1:53 pm 13:53 Partly Cloudy 87 30.6 74 23.3 65 65 E 5 7 30.01 1016 10 16 0.00 0.00
2:53 pm 14:53 Mostly Sunny 90 32.2 72 22.2 56 56 VRB 3 6 29.97 1015 10 16 0.00 0.00
3:53 pm 15:53 Sunny 90 32.2 72 22.2 56 56 VRB 5 7 29.95 1014 10 16 0.00 0.00
4:53 pm 16:53 Sunny 87 30.6 72 22.2 61 61 ENE 7 11 29.95 1014 10 16 0.00 0.00
5:53 pm 17:53 Sunny 87 30.6 73 22.8 63 63 ENE 5 7 29.96 1014 10 16 0.00 0.00
6:53 pm 18:53 Sunny 86 30 75 23.9 70 70 NNE 3 6 29.96 1014 10 16 0.00 0.00
7:53 pm 19:53 Clear 81 27.2 77 25 88 88 ENE 3 6 29.97 1015 10 16 0.00 0.00
8:53 pm 20:53 Clear 79 26.1 76 24.4 90 90 NE 3 6 29.99 1016 10 16 0.00 0.00
9:53 pm 21:53 Clear 77 25 75 23.9 94 94 Calm 30.00 1016 7 11 0.00 0.00
10:53 pm 22:53 Clear with Mist and Fog 76 24.4 75 23.9 97 97 Calm 30.00 1016 5 8 0.00 0.00
11:53 pm 23:53 Clear with Mist and Fog 75 23.9 74 23.3 96 96 Calm 29.98 1015 4 6 0.00 0.00

Powered by AerisWeather